Weather History for Bentonville, AR

Change the Weather History Date:

Saturday, November 30, 2013

  Actual Average Record
Temperature  
Mean Temperature 46 °F -  
Max Temperature 57 °F 52 °F 69 °F (1970)
Min Temperature 35 °F 29 °F 6 °F (1976)
Degree Days  
Heating Degree Days 19    
Growing Degree Days 0 (Base 50)    
Moisture  
Dew Point 34 °F    
Average Humidity 63    
Maximum Humidity 87    
Minimum Humidity 51    
Precipitation  
Precipitation 0.00 in - - ()
Sea Level Pressure  
Sea Level Pressure 30.20 in    
Wind  
Wind Speed 8 mph (South)    
Max Wind Speed 16 mph    
Max Gust Speed 23 mph    
Visibility 10 miles    
Events      
Averages and records for this station are not official NWS values.
T = Trace of Precipitation, MM = Missing Value Source: NWS Daily Summary

Daily Weather History Graph

Daily Weather History Graph

Search for Another Location

Airport:

Trip Planner

Search our weather history database for the weather conditions in past years. The results will help you decide how hot, cold, wet, or windy it might be!

Date:

Astronomy

Nov. 30, 2013 Rise Set
Actual Time 7:09 AM CST 5:02 PM CST
Civil Twilight 6:40 AM CST 5:30 PM CST
Nautical Twilight 6:09 AM CST 6:02 PM CST
Astronomical Twilight 5:38 AM CST 6:33 PM CST
Moon 4:24 AM CST (11/30) 3:23 PM CST (11/30)
Length of Visible Light 10h 49m
Length of Day
9h 52m
Waning Crescent, 7% of the Moon is Illuminated
Nov 30
Waning Crescent
Dec 2
New
Dec 9
First Quarter
Dec 17
Full
Dec 25
Last Quarter

Hourly Weather History & Observations

Time (CST) Temp. Windchill Dew Point Humidity Pressure Visibility Wind Dir Wind Speed Gust Speed Precip Events Conditions
12:15 AM 37.4 °F 33.8 °F 23.0 °F 56% 30.32 in 10.0 mi SSW 4.6 mph - N/A   Clear
12:35 AM 35.6 °F 31.7 °F 21.2 °F 56% 30.31 in 10.0 mi South 4.6 mph - N/A   Clear
12:55 AM 37.4 °F 32.1 °F 23.0 °F 56% 30.31 in 10.0 mi South 6.9 mph - N/A   Clear
1:15 AM 35.6 °F 29.9 °F 23.0 °F 60% 30.30 in 10.0 mi SSE 6.9 mph - N/A   Clear
1:35 AM 35.6 °F 29.2 °F 23.0 °F 60% 30.29 in 10.0 mi South 8.1 mph - N/A   Clear
1:55 AM 35.6 °F 30.7 °F 23.0 °F 60% 30.29 in 10.0 mi South 5.8 mph - N/A   Clear
2:15 AM 37.4 °F 32.1 °F 24.8 °F 60% 30.28 in 10.0 mi South 6.9 mph - N/A   Clear
2:35 AM 37.4 °F 32.1 °F 23.0 °F 56% 30.29 in 10.0 mi South 6.9 mph - N/A   Clear
2:55 AM 37.4 °F 32.8 °F 23.0 °F 56% 30.28 in 10.0 mi South 5.8 mph - N/A   Clear
3:15 AM 35.6 °F 31.7 °F 23.0 °F 60% 30.28 in 10.0 mi South 4.6 mph - N/A   Clear
3:35 AM 35.6 °F 30.7 °F 24.8 °F 65% 30.27 in 10.0 mi South 5.8 mph - N/A   Clear
3:55 AM 35.6 °F 29.2 °F 24.8 °F 65% 30.27 in 10.0 mi South 8.1 mph - N/A   Clear
4:15 AM 35.6 °F 29.2 °F 24.8 °F 65% 30.27 in 10.0 mi South 8.1 mph - N/A   Clear
4:35 AM 35.6 °F 29.2 °F 24.8 °F 65% 30.26 in 10.0 mi South 8.1 mph - N/A   Clear
4:55 AM 37.4 °F 32.1 °F 24.8 °F 60% 30.26 in 10.0 mi South 6.9 mph - N/A   Clear
5:15 AM 37.4 °F 31.4 °F 24.8 °F 60% 30.25 in 10.0 mi South 8.1 mph - N/A   Clear
5:35 AM 37.4 °F 32.1 °F 24.8 °F 60% 30.24 in 10.0 mi South 6.9 mph - N/A   Clear
5:55 AM 37.4 °F 32.1 °F 26.6 °F 65% 30.24 in 10.0 mi South 6.9 mph - N/A   Clear
6:15 AM 37.4 °F 32.8 °F 26.6 °F 65% 30.24 in 10.0 mi South 5.8 mph - N/A   Clear
6:35 AM 37.4 °F 32.8 °F 26.6 °F 65% 30.24 in 10.0 mi South 5.8 mph - N/A   Clear
6:55 AM 37.4 °F 32.1 °F 26.6 °F 65% 30.24 in 10.0 mi South 6.9 mph - N/A   Clear
7:15 AM 39.2 °F 33.0 °F 26.6 °F 61% 30.24 in 10.0 mi South 9.2 mph - N/A   Clear
7:35 AM 39.2 °F 33.0 °F 28.4 °F 65% 30.24 in 10.0 mi South 9.2 mph - N/A   Clear
7:55 AM 41.0 °F 35.2 °F 28.4 °F 61% 30.23 in 10.0 mi South 9.2 mph - N/A   Clear
8:15 AM 42.8 °F 38.0 °F 28.4 °F 57% 30.24 in 10.0 mi South 8.1 mph - N/A   Clear
8:35 AM 44.6 °F 40.2 °F 30.2 °F 57% 30.24 in 10.0 mi South 8.1 mph - N/A   Clear
8:55 AM 46.4 °F 41.1 °F 32.0 °F 57% 30.23 in 10.0 mi SSW 11.5 mph 16.1 mph N/A   Clear
9:15 AM 48.2 °F - 33.8 °F 58% 30.23 in 10.0 mi SSW 12.7 mph - N/A   Clear
9:35 AM 51.8 °F - 35.6 °F 54% 30.24 in 10.0 mi SSW 12.7 mph 21.9 mph N/A   Clear
9:55 AM 51.8 °F - 35.6 °F 54% 30.24 in 10.0 mi SSW 15.0 mph 19.6 mph N/A   Clear
10:15 AM 53.6 °F - 35.6 °F 51% 30.23 in 10.0 mi SSW 13.8 mph 20.7 mph N/A   Clear
10:35 AM 53.6 °F - 37.4 °F 54% 30.22 in 10.0 mi SSW 16.1 mph 23.0 mph N/A   Clear
10:55 AM 55.4 °F - 37.4 °F 51% 30.22 in 10.0 mi SSW 13.8 mph 19.6 mph N/A   Clear
11:15 AM 55.4 °F - 37.4 °F 51% 30.21 in 10.0 mi SSW 12.7 mph 19.6 mph N/A   Clear
11:35 AM 55.4 °F - 37.4 °F 51% 30.20 in 10.0 mi SSW 15.0 mph 18.4 mph N/A   Clear
11:55 AM 55.4 °F - 39.2 °F 54% 30.19 in 10.0 mi SSW 13.8 mph 19.6 mph N/A   Clear
12:15 PM 55.4 °F - 39.2 °F 54% 30.18 in 10.0 mi SSW 13.8 mph 20.7 mph N/A   Clear
12:35 PM 55.4 °F - 39.2 °F 54% 30.18 in 10.0 mi SW 15.0 mph 20.7 mph N/A   Clear
12:55 PM 55.4 °F - 39.2 °F 54% 30.17 in 10.0 mi SW 13.8 mph - N/A   Clear
1:15 PM 55.4 °F - 39.2 °F 54% 30.16 in 10.0 mi SW 10.4 mph 18.4 mph N/A   Clear
1:35 PM 55.4 °F - 39.2 °F 54% 30.16 in 10.0 mi South 12.7 mph 16.1 mph N/A   Clear
1:55 PM 55.4 °F - 39.2 °F 54% 30.15 in 10.0 mi SW 11.5 mph 16.1 mph N/A   Clear
2:15 PM 55.4 °F - 39.2 °F 54% 30.14 in 10.0 mi SSW 9.2 mph 17.3 mph N/A   Clear
2:35 PM 55.4 °F - 39.2 °F 54% 30.13 in 10.0 mi South 11.5 mph - N/A   Clear
2:55 PM 55.4 °F - 39.2 °F 54% 30.13 in 10.0 mi SSW 12.7 mph - N/A   Clear
3:15 PM 55.4 °F - 39.2 °F 54% 30.13 in 10.0 mi SSW 13.8 mph - N/A   Clear
3:35 PM 57.2 °F - 39.2 °F 51% 30.13 in 10.0 mi SSW 11.5 mph 16.1 mph N/A   Clear
3:55 PM 55.4 °F - 39.2 °F 54% 30.13 in 10.0 mi SSW 10.4 mph 18.4 mph N/A   Clear
4:15 PM 55.4 °F - 39.2 °F 54% 30.13 in 10.0 mi SSW 9.2 mph - N/A   Clear
4:35 PM 53.6 °F - 39.2 °F 58% 30.12 in 10.0 mi South 6.9 mph - N/A   Clear
4:55 PM 53.6 °F - 39.2 °F 58% 30.12 in 10.0 mi SSW 6.9 mph - N/A   Clear
5:15 PM 51.8 °F - 39.2 °F 62% 30.12 in 10.0 mi SSW 5.8 mph - N/A   Clear
5:35 PM 51.8 °F - 39.2 °F 62% 30.12 in 10.0 mi SSW 6.9 mph - N/A   Clear
5:55 PM 50.0 °F - 39.2 °F 66% 30.13 in 10.0 mi SSW 6.9 mph - N/A   Clear
6:15 PM 50.0 °F - 39.2 °F 66% 30.13 in 10.0 mi SSW 4.6 mph - N/A   Clear
6:35 PM 48.2 °F - 39.2 °F 71% 30.13 in 10.0 mi South 5.8 mph - N/A   Clear
6:55 PM 48.2 °F - 39.2 °F 71% 30.13 in 10.0 mi SSW 4.6 mph - N/A   Clear
7:15 PM 48.2 °F - 39.2 °F 71% 30.14 in 10.0 mi SSW 3.5 mph - N/A   Clear
7:35 PM 46.4 °F 44.3 °F 39.2 °F 76% 30.13 in 10.0 mi South 4.6 mph - N/A   Clear
7:55 PM 46.4 °F 44.3 °F 39.2 °F 76% 30.14 in 10.0 mi South 4.6 mph - N/A   Clear
8:15 PM 46.4 °F 45.2 °F 39.2 °F 76% 30.14 in 10.0 mi South 3.5 mph - N/A   Clear
8:35 PM 44.6 °F 43.1 °F 39.2 °F 81% 30.15 in 10.0 mi SSW 3.5 mph - N/A   Clear
8:55 PM 44.6 °F - 39.2 °F 81% 30.14 in 10.0 mi Calm Calm - N/A   Clear
9:15 PM 44.6 °F - 39.2 °F 81% 30.14 in 10.0 mi Calm Calm - N/A   Clear
9:35 PM 42.8 °F 41.1 °F 37.4 °F 81% 30.15 in 10.0 mi South 3.5 mph - N/A   Clear
9:55 PM 42.8 °F 40.1 °F 37.4 °F 81% 30.14 in 10.0 mi South 4.6 mph - N/A   Clear
10:15 PM 42.8 °F 41.1 °F 37.4 °F 81% 30.14 in 10.0 mi South 3.5 mph - N/A   Clear
10:35 PM 42.8 °F 40.1 °F 39.2 °F 87% 30.14 in 10.0 mi South 4.6 mph - N/A   Mostly Cloudy
10:55 PM 44.6 °F 42.2 °F 39.2 °F 81% 30.14 in 10.0 mi South 4.6 mph - N/A   Overcast
11:15 PM 46.4 °F 45.2 °F 41.0 °F 81% 30.14 in 10.0 mi SSW 3.5 mph - N/A   Overcast
11:35 PM 46.4 °F 44.3 °F 41.0 °F 81% 30.14 in 10.0 mi SSW 4.6 mph - N/A   Overcast
11:55 PM 46.4 °F 45.2 °F 41.0 °F 81% 30.13 in 10.0 mi SSW 3.5 mph - N/A   Mostly Cloudy